GW0774 Weather Reports


time (UTC)temp
F
wind
direction
speed
knots
gust
knots
rain 1hr
in
rain 24hr
in
rain mn
in
humidity
%
barometer
mb
20260508231554 62 306 8.7 16.5 0.00 0.24 0.05 80 999.8
20260508231039 62 277 7.8 15.6 0.00 0.24 0.05 78 999.8
20260508230539 62 257 6.1 12.2 0.00 0.24 0.05 77 999.6
20260508230046 63 279 5.2 12.2 0.00 0.24 0.05 78 999.6
20260508225539 63 317 2.6 7.8 0.00 0.24 0.05 78 999.7
20260508225040 63 249 1.7 9.6 0.00 0.24 0.05 78 999.6
20260508224545 63 274 3.5 9.6 0.00 0.24 0.05 78 999.8
20260508224039 63 289 5.2 9.6 0.00 0.24 0.05 77 1000.1
20260508223539 63 271 5.2 8.7 0.00 0.24 0.05 79 1000.1
20260508223050 63 226 3.5 9.6 0.00 0.24 0.05 79 1000.3
20260508222540 63 273 3.5 9.6 0.00 0.24 0.05 78 1000.1
20260508222039 63 259 3.5 7.8 0.00 0.24 0.05 78 1000.2
20260508221551 64 42 4.3 7.8 0.00 0.24 0.05 78 1000.2
20260508221041 65 279 2.6 6.1 0.00 0.24 0.05 79 1000.5
20260508220539 64 51 2.6 6.1 0.00 0.24 0.05 79 1000.5
20260508220054 64 257 1.7 7.0 0.00 0.24 0.05 80 1000.5
20260508215539 63 240 3.5 7.0 0.00 0.24 0.05 79 1000.5
20260508215039 63 289 2.6 7.8 0.00 0.24 0.05 78 1000.6
20260508214554 63 18 2.6 7.8 0.00 0.24 0.05 80 1000.5
20260508214038 63 260 0.0 7.8 0.00 0.24 0.05 81 1000.4
20260508213539 63 282 1.7 7.8 0.00 0.24 0.05 80 1000.3
20260508213045 62 292 1.7 7.0 0.00 0.24 0.05 81 1000.2
20260508212538 62 320 1.7 8.7 0.00 0.24 0.05 81 1000.1
20260508212035 62 201 1.7 8.7 0.00 0.24 0.05 82 1000.1
20260508211549 62 0 2.6 8.7 0.00 0.24 0.05 82 1000.0
20260508211039 61 265 0.0 8.7 0.00 0.24 0.05 83 1000.0
20260508210539 61 300 2.6 8.7 0.00 0.24 0.05 83 1000.0
20260508210050 61 269 1.7 7.0 0.00 0.24 0.05 84 999.9
20260508205538 60 234 2.6 7.0 0.00 0.24 0.05 85 999.8
20260508205038 60 252 0.9 7.0 0.00 0.24 0.05 86 999.7
20260508204549 59 279 2.6 7.0 0.00 0.24 0.05 86 999.7
20260508204042 59 219 2.6 5.2 0.00 0.24 0.05 86 999.7
20260508203538 59 277 0.9 5.2 0.00 0.24 0.05 87 999.8
20260508203051 59 279 1.7 6.1 0.00 0.24 0.05 86 999.8
20260508202540 59 251 1.7 7.8 0.00 0.24 0.05 86 999.9
20260508202039 59 273 0.9 7.8 0.00 0.24 0.05 87 1000.0
20260508201545 59 269 1.7 6.1 0.00 0.24 0.05 87 1000.0
20260508201042 59 245 2.6 7.8 0.00 0.24 0.05 88 1000.1
20260508200541 58 246 1.7 7.8 0.00 0.24 0.05 89 1000.0
20260508200046 58 100 1.7 7.0 0.00 0.24 0.05 90 1000.1
20260508195538 58 224 0.9 4.3 0.00 0.24 0.05 90 1000.0
20260508195038 57 300 0.9 7.0 0.00 0.24 0.05 90 1000.0
20260508194555 57 271 1.7 7.0 0.00 0.24 0.05 90 999.9
20260508194036 57 115 0.0 3.5 0.00 0.24 0.05 90 999.8
20260508193537 57 0 0.9 4.3 0.00 0.24 0.05 90 999.9
20260508193103 57 209 0.0 4.3 0.00 0.24 0.05 89 1000.0
20260508192537 57 106 0.9 4.3 0.00 0.24 0.05 90 999.9
20260508192037 57 263 0.9 5.2 0.00 0.24 0.05 90 1000.0
20260508191546 57 263 0.9 5.2 0.00 0.24 0.05 90 1000.0
20260508191036 57 111 0.9 4.3 0.00 0.24 0.05 90 1000.1
20260508190538 57 90 0.9 7.0 0.00 0.24 0.05 91 1000.1
20260508190046 57 284 1.7 7.0 0.00 0.24 0.05 92 1000.1
20260508185537 57 329 1.7 7.0 0.00 0.24 0.05 93 1000.3
20260508185036 57 240 0.0 3.5 0.00 0.24 0.05 93 1000.3
20260508184559 56 240 0.9 3.5 0.00 0.24 0.05 93 1000.3
20260508184037 56 0 0.0 2.6 0.00 0.24 0.05 93 1000.6
20260508183536 56 0 0.0 1.7 0.00 0.24 0.05 93 1000.5
20260508183048 56 0 0.0 3.5 0.00 0.24 0.05 93 1000.5
20260508182536 56 240 0.9 3.5 0.00 0.24 0.05 93 1000.6
20260508182036 56 240 0.0 2.6 0.00 0.24 0.05 93 1000.5
20260508181549 56 240 0.0 1.7 0.00 0.24 0.05 93 1000.4
20260508181039 56 240 0.0 1.7 0.00 0.24 0.05 93 1000.4
20260508180536 56 0 0.0 1.7 0.00 0.24 0.05 94 1000.3
20260508180050 56 174 0.0 2.6 0.00 0.24 0.05 94 1000.3
20260508175535 56 97 0.0 2.6 0.00 0.24 0.05 94 1000.4
20260508175039 56 78 0.9 2.6 0.00 0.24 0.05 94 1000.4
20260508174545 56 0 0.0 2.6 0.00 0.23 0.04 94 1000.5
20260508174036 56 219 0.0 2.6 0.00 0.23 0.04 94 1000.6
20260508173537 56 0 0.0 2.6 0.00 0.23 0.04 94 1000.6
20260508173044 55 0 0.9 2.6 0.00 0.23 0.04 95 1000.6
20260508172536 55 0 0.0 2.6 0.00 0.23 0.04 95 1000.6
20260508172036 55 0 0.0 0.0 0.00 0.23 0.04 94 1000.6
20260508171544 55 0 0.0 0.0 0.00 0.23 0.04 94 1000.5
20260508171039 55 0 0.0 0.0 0.00 0.23 0.04 94 1000.5
20260508170536 54 0 0.0 0.0 0.00 0.23 0.04 94 1000.5
20260508170048 54 0 0.0 0.0 0.00 0.23 0.04 94 1000.6
20260508165535 54 0 0.0 0.0 0.00 0.23 0.04 94 1000.6
20260508165036 54 0 0.0 0.0 0.00 0.23 0.04 94 1000.5
20260508164547 54 0 0.0 0.0 0.00 0.23 0.04 94 1000.5
20260508164040 54 0 0.0 0.0 0.00 0.23 0.04 94 1000.6
20260508163538 53 0 0.0 0.0 0.00 0.23 0.04 94 1000.6
20260508163049 54 0 0.0 0.0 0.00 0.23 0.04 94 1000.6
20260508162538 54 0 0.0 0.0 0.00 0.23 0.04 94 1000.5
20260508162039 53 0 0.0 0.0 0.00 0.23 0.04 93 1000.4
20260508161546 53 0 0.0 0.0 0.00 0.23 0.04 93 1000.5
20260508161038 53 0 0.0 0.0 0.00 0.23 0.04 93 1000.4
20260508160543 54 0 0.0 0.0 0.00 0.23 0.04 93 1000.4
20260508160105 54 0 0.0 0.0 0.00 0.23 0.04 93 1000.5
20260508155541 54 0 0.0 0.0 0.00 0.23 0.04 92 1000.6
20260508155038 55 0 0.0 0.0 0.00 0.23 0.04 93 1000.7
20260508154553 55 0 0.0 0.0 0.00 0.23 0.04 93 1000.6
20260508154038 55 0 0.0 0.9 0.00 0.23 0.04 93 1000.8
20260508153539 56 0 0.0 0.9 0.00 0.23 0.04 93 1000.8
20260508153048 56 0 0.0 0.9 0.00 0.23 0.04 93 1000.9
20260508152538 56 0 0.0 0.9 0.00 0.23 0.04 93 1000.9
20260508152038 56 0 0.0 0.9 0.00 0.23 0.04 92 1001.1
20260508151549 56 0 0.0 0.0 0.00 0.23 0.04 92 1001.1
20260508151039 56 0 0.0 0.0 0.00 0.23 0.04 92 1001.1
20260508150539 56 0 0.0 0.0 0.00 0.23 0.04 92 1001.3
20260508150049 57 0 0.0 0.0 0.00 0.23 0.04 92 1001.3
20260508145539 57 0 0.0 0.0 0.00 0.23 0.04 91 1001.5
20260508145039 57 0 0.0 0.9 0.00 0.23 0.04 91 1001.6
20260508144551 57 0 0.0 0.9 0.00 0.23 0.04 91 1001.6
20260508144039 58 0 0.0 1.7 0.00 0.23 0.04 91 1001.6
20260508143541 58 0 0.0 1.7 0.00 0.23 0.04 91 1001.6
20260508143105 58 0 0.0 5.2 0.00 0.23 0.04 91 1001.7
20260508142539 58 261 0.9 5.2 0.00 0.23 0.04 91 1001.6
20260508142039 58 274 2.6 5.2 0.00 0.23 0.04 91 1001.6
20260508141555 58 238 0.9 4.3 0.00 0.23 0.04 90 1001.5
20260508141039 58 222 1.7 3.5 0.00 0.23 0.04 90 1001.4
20260508140538 58 278 1.7 6.1 0.00 0.23 0.04 90 1001.4
20260508140050 58 230 1.7 7.0 0.00 0.23 0.04 90 1001.3
20260508135542 58 243 2.6 7.0 0.00 0.23 0.04 91 1001.3
20260508135038 58 228 2.6 7.0 0.00 0.23 0.04 91 1001.4
20260508134545 58 240 1.7 7.0 0.00 0.23 0.04 91 1001.4
20260508134040 58 283 2.6 6.1 0.00 0.23 0.04 91 1001.5
20260508133540 59 242 2.6 7.0 0.00 0.23 0.04 91 1001.5
20260508133053 59 287 3.5 7.0 0.00 0.23 0.04 92 1001.5
20260508132539 59 315 2.6 6.1 0.00 0.23 0.04 92 1001.5
20260508132039 59 252 2.6 6.1 0.00 0.23 0.04 92 1001.5
20260508131548 59 249 3.5 8.7 0.00 0.23 0.04 92 1001.6
20260508131039 60 246 3.5 8.7 0.02 0.23 0.04 92 1001.5
20260508130538 60 288 3.5 8.7 0.03 0.23 0.04 91 1001.5
20260508130054 60 284 3.5 8.7 0.04 0.23 0.04 91 1001.5
20260508125539 60 300 2.6 11.3 0.05 0.23 0.04 91 1001.4
20260508125039 60 289 5.2 11.3 0.06 0.23 0.04 91 1001.4
20260508124548 60 272 6.1 11.3 0.07 0.23 0.04 92 1001.3
20260508124038 59 300 6.1 11.3 0.09 0.23 0.04 92 1001.4
20260508123539 58 254 7.0 11.3 0.10 0.23 0.04 93 1001.5
20260508123046 58 261 7.0 12.2 0.11 0.22 0.03 93 1001.6
20260508122539 58 270 7.8 22.6 0.15 0.22 0.03 93 1001.5
20260508122040 58 274 8.7 22.6 0.16 0.22 0.03 94 1001.4
20260508121600 57 269 10.4 22.6 0.16 0.22 0.03 94 1001.4
20260508121041 57 300 9.6 20.0 0.15 0.21 0.02 94 1001.6
20260508120539 57 283 9.6 15.6 0.14 0.19 0.00 94 1001.7
20260508120046 57 263 7.8 16.5 0.13 0.18 0.00 94 1001.8
20260508115543 58 264 7.8 16.5 0.13 0.18 0.18 94 1001.9
20260508115038 58 311 8.7 14.8 0.11 0.16 0.16 94 1002.0
20260508114547 58 298 7.8 19.1 0.10 0.14 0.14 93 1002.0
20260508114039 59 302 9.6 19.1 0.09 0.14 0.14 93 1002.2
20260508113539 60 349 10.4 19.1 0.08 0.13 0.13 92 1002.0
20260508113055 61 250 6.1 10.4 0.06 0.11 0.11 93 1001.9
20260508112539 61 244 5.2 7.0 0.01 0.06 0.06 92 1001.8
20260508112041 61 230 2.6 3.5 0.01 0.06 0.06 92 1001.3
20260508111546 61 181 0.0 3.5 0.01 0.06 0.06 92 1000.9
20260508111040 61 181 0.0 3.5 0.00 0.05 0.05 92 1000.8
20260508110539 61 146 0.0 1.7 0.00 0.05 0.05 91 1000.9
20260508110052 61 144 0.0 0.9 0.00 0.05 0.05 91 1001.0
20260508105539 61 144 0.0 0.9 0.00 0.04 0.04 91 1001.1
20260508105039 61 0 0.0 0.9 0.01 0.04 0.04 91 1001.4
20260508104549 61 0 0.0 0.9 0.03 0.04 0.04 90 1001.5
20260508104040 61 218 0.0 0.9 0.03 0.04 0.04 90 1001.5
20260508103539 62 0 0.0 0.9 0.04 0.04 0.04 89 1001.5
20260508103051 62 232 0.0 0.9 0.04 0.04 0.04 89 1001.4
20260508102539 62 0 0.0 0.9 0.04 0.04 0.04 88 1001.6
20260508102039 62 0 0.0 0.9 0.04 0.04 0.04 87 1001.6
20260508101546 63 0 0.0 7.0 0.04 0.04 0.04 87 1001.6
20260508101040 63 232 0.0 7.0 0.04 0.04 0.04 86 1001.8
20260508100538 63 231 1.7 7.8 0.04 0.04 0.04 86 1001.8
20260508100048 64 261 1.7 7.8 0.04 0.04 0.04 85 1001.9
20260508095541 64 15 3.5 8.7 0.04 0.04 0.04 83 1001.9
20260508095040 65 61 3.5 8.7 0.03 0.03 0.03 81 1001.9
20260508094554 65 69 0.9 7.0 0.01 0.01 0.01 80 1001.9
20260508094039 65 230 1.7 4.3 0.00 0.00 0.00 80 1001.9
20260508093539 65 268 0.0 5.2 0.00 0.00 0.00 79 1001.7
20260508093042 65 237 0.9 5.2 0.00 0.00 0.00 78 1001.8
20260508092538 66 83 1.7 8.7 0.00 0.00 0.00 77 1001.9
20260508092039 66 0 1.7 8.7 0.00 0.00 0.00 77 1001.8
20260508091555 66 256 1.7 7.8 0.00 0.00 0.00 76 1001.6
20260508091039 66 32 2.6 12.2 0.00 0.00 0.00 76 1001.9
20260508090539 66 242 4.3 13.9 0.00 0.00 0.00 76 1002.1
20260508090047 67 335 3.5 13.9 0.00 0.00 0.00 75 1002.4
20260508085538 67 329 4.3 13.9 0.00 0.00 0.00 75 1002.4
20260508085038 66 46 2.6 7.8 0.00 0.00 0.00 75 1001.9
20260508084548 66 292 1.7 6.1 0.00 0.00 0.00 76 1001.9
20260508084039 66 94 1.7 6.1 0.00 0.00 0.00 77 1001.9
20260508083538 66 287 2.6 7.8 0.00 0.00 0.00 77 1001.3
20260508083124 66 79 1.7 7.8 0.00 0.00 0.00 77 1001.2
20260508082539 66 73 0.9 8.7 0.00 0.00 0.00 77 1001.6
20260508082110 66 62 0.9 8.7 0.00 0.00 0.00 76 1001.6
20260508081548 66 57 0.9 7.0 0.00 0.00 0.00 75 1001.9
20260508081038 66 265 1.7 4.3 0.00 0.00 0.00 75 1002.0
20260508080538 66 186 0.9 7.8 0.00 0.00 0.00 75 1002.0
20260508080054 66 71 1.7 7.8 0.00 0.00 0.00 75 1002.1
20260508075535 66 70 1.7 6.1 0.00 0.00 0.00 76 1002.5
20260508075038 66 138 0.9 5.2 0.00 0.00 0.00 75 1002.7
20260508074548 66 234 1.7 7.8 0.00 0.00 0.00 75 1002.8
20260508074035 66 244 1.7 7.8 0.00 0.00 0.00 75 1002.8
20260508073539 66 86 1.7 9.6 0.00 0.00 0.00 75 1003.0
20260508073059 66 336 1.7 9.6 0.00 0.00 0.00 76 1003.2
20260508072535 65 270 2.6 6.1 0.00 0.00 0.00 76 1003.2
20260508072035 65 102 1.7 6.1 0.00 0.00 0.00 76 1003.5
20260508071549 65 84 0.9 3.5 0.00 0.00 0.00 76 1003.5
20260508071035 65 236 0.9 2.6 0.00 0.00 0.00 75 1003.5
20260508070536 65 225 0.9 2.6 0.00 0.00 0.00 75 1003.5
20260508070046 65 71 0.0 2.6 0.00 0.00 0.00 75 1003.4
20260508065539 65 76 0.9 2.6 0.00 0.00 0.00 74 1003.4
20260508065035 66 242 0.9 4.3 0.00 0.00 0.00 73 1003.4
20260508064601 66 5 1.7 5.2 0.00 0.00 0.00 72 1003.2
20260508064039 66 0 0.0 8.7 0.00 0.00 0.00 71 1003.3
20260508063539 66 0 0.9 8.7 0.00 0.00 0.00 71 1003.4
20260508063048 66 289 0.9 9.6 0.00 0.00 0.00 71 1003.3
20260508062535 66 181 2.6 9.6 0.00 0.00 0.00 70 1003.5
20260508062035 66 221 1.7 9.6 0.00 0.00 0.00 70 1003.3
20260508061547 66 72 2.6 9.6 0.00 0.00 0.00 71 1003.3
20260508061036 65 46 1.7 7.8 0.00 0.00 0.00 71 1003.5
20260508060539 65 236 1.7 7.0 0.00 0.00 0.00 72 1003.5
20260508060046 65 85 0.9 7.0 0.00 0.00 0.00 72 1003.8
20260508055538 65 42 0.9 7.8 0.00 0.00 0.00 73 1003.9
20260508055035 65 51 2.6 9.6 0.00 0.00 0.00 73 1004.0
20260508054554 64 280 2.6 9.6 0.00 0.00 0.00 74 1004.1
20260508054038 64 92 2.6 7.0 0.00 0.00 0.00 76 1004.1
20260508053535 64 296 1.7 7.0 0.00 0.00 0.00 77 1004.3
20260508053050 63 224 1.7 7.0 0.00 0.00 0.00 78 1004.4
20260508052539 62 227 0.9 4.3 0.00 0.00 0.00 79 1004.6
20260508052038 62 0 0.9 2.6 0.00 0.00 0.00 80 1004.8
20260508051539 62 0 0.0 1.7 0.00 0.00 0.00 81 1004.7
20260508051039 62 0 0.0 1.7 0.00 0.00 0.00 83 1004.9
20260508050539 62 0 0.0 0.9 0.00 0.00 0.00 84 1004.9
20260508050052 62 0 0.0 0.0 0.00 0.00 0.00 83 1005.2
20260508045539 63 0 0.0 0.9 0.00 0.00 0.00 83 1005.2
20260508045040 63 0 0.0 0.9 0.00 0.00 0.00 83 1005.2
20260508044546 63 0 0.0 0.9 0.00 0.00 0.00 82 1005.2
20260508044041 63 0 0.0 0.9 0.00 0.00 0.00 82 1005.3
20260508043538 64 0 0.0 0.9 0.00 0.00 0.00 82 1005.4
20260508043046 64 0 0.0 0.9 0.00 0.00 0.00 81 1005.5
20260508042542 64 82 0.0 0.9 0.00 0.00 0.00 81 1005.6
20260508042038 64 82 0.0 0.9 0.00 0.00 0.00 80 1005.7
20260508041544 64 82 0.0 1.7 0.00 0.00 0.00 79 1005.7
20260508041039 64 84 0.0 1.7 0.00 0.00 0.00 79 1005.6
20260508040539 64 89 0.9 1.7 0.00 0.00 0.00 79 1005.8
20260508040043 65 88 0.9 3.5 0.00 0.00 0.00 79 1005.8
20260508035539 64 88 0.0 3.5 0.00 0.00 0.00 79 1006.0
20260508035039 64 84 0.9 2.6 0.00 0.00 0.00 79 1006.3
20260508034553 64 79 0.9 2.6 0.00 0.00 0.00 79 1006.3
20260508034038 64 84 0.9 2.6 0.00 0.00 0.00 80 1006.5
20260508033538 64 86 0.0 2.6 0.00 0.00 0.00 80 1006.7
20260508033046 64 99 0.0 1.7 0.00 0.00 0.00 80 1006.7
20260508032539 64 99 0.0 1.7 0.00 0.00 0.00 80 1006.8
20260508032042 64 98 0.0 0.9 0.00 0.00 0.00 80 1006.9
20260508031546 64 98 0.0 1.7 0.00 0.00 0.00 79 1007.0
20260508031039 65 97 0.0 1.7 0.00 0.00 0.00 78 1007.0
20260508030538 65 0 0.9 2.6 0.00 0.00 0.00 77 1007.1
20260508030056 65 88 0.9 2.6 0.00 0.00 0.00 75 1007.1
20260508025538 66 84 1.7 2.6 0.00 0.00 0.00 74 1007.1
20260508025038 66 0 0.0 1.7 0.00 0.00 0.00 74 1007.2
20260508024600 66 77 0.0 3.5 0.00 0.00 0.00 72 1007.5
20260508024039 66 0 0.0 5.2 0.00 0.00 0.00 72 1007.5
20260508023539 66 58 0.0 5.2 0.00 0.00 0.00 72 1007.8
20260508023052 67 340 0.9 3.5 0.00 0.00 0.00 72 1007.8
20260508022539 67 60 1.7 3.5 0.00 0.00 0.00 72 1008.0
20260508022039 67 0 0.0 3.5 0.00 0.00 0.00 72 1008.3
20260508021548 67 96 0.9 4.3 0.00 0.00 0.00 72 1008.5
20260508021038 67 54 0.0 6.1 0.00 0.00 0.00 73 1008.8
20260508020538 67 348 1.7 6.1 0.00 0.00 0.00 72 1009.1
20260508020049 67 0 0.9 1.7 0.00 0.00 0.00 73 1009.1
20260508015535 67 213 0.0 2.6 0.00 0.00 0.00 72 1009.0
20260508015038 67 0 0.0 2.6 0.00 0.00 0.00 73 1009.1
20260508014546 67 246 0.9 3.5 0.00 0.00 0.00 73 1009.2
20260508014035 67 265 0.9 3.5 0.00 0.00 0.00 73 1009.4
20260508013535 68 253 0.9 2.6 0.00 0.00 0.00 72 1009.4
20260508013052 68 41 0.0 6.1 0.00 0.00 0.00 72 1009.4
20260508012539 68 231 1.7 6.1 0.00 0.00 0.00 72 1009.6
20260508012037 68 265 0.9 7.0 0.00 0.00 0.00 71 1009.6
20260508011559 68 251 1.7 7.0 0.00 0.00 0.00 72 1009.8
20260508011038 68 259 1.7 7.0 0.00 0.00 0.00 71 1009.8
20260508010535 68 237 1.7 7.0 0.00 0.00 0.00 72 1009.7
20260508010058 68 262 2.6 7.0 0.00 0.00 0.00 72 1009.9
20260508005539 68 277 3.5 7.0 0.00 0.00 0.00 72 1010.0
20260508005038 68 64 1.7 7.0 0.00 0.00 0.00 71 1010.1
20260508004554 68 0 2.6 7.8 0.00 0.00 0.00 70 1010.2
20260508004036 68 298 0.9 7.8 0.00 0.00 0.00 71 1010.3
20260508003538 68 63 2.6 8.7 0.00 0.00 0.00 69 1010.4
20260508003056 69 222 1.7 11.3 0.00 0.00 0.00 69 1010.5
20260508002536 69 298 2.6 11.3 0.00 0.00 0.00 68 1010.7
20260508002039 70 250 2.6 8.7 0.00 0.00 0.00 69 1011.1
20260508001548 70 36 2.6 7.0 0.00 0.00 0.00 69 1011.1
20260508001038 70 275 2.6 7.0 0.00 0.00 0.00 69 1011.2
20260508000538 70 46 2.6 10.4 0.00 0.00 0.00 69 1011.4
20260508000047 70 232 1.7 10.4 0.00 0.00 0.00 70 1011.6
20260507235540 69 33 1.7 10.4 0.00 0.00 0.00 70 1011.6
20260507235035 69 84 1.7 10.4 0.00 0.00 0.00 71 1011.8
20260507234544 69 307 4.3 10.4 0.00 0.00 0.00 69 1011.7
20260507234035 69 202 1.7 7.8 0.00 0.00 0.00 70 1011.6
20260507233539 69 64 1.7 5.2 0.00 0.00 0.00 73 1011.7
20260507233043 69 271 1.7 5.2 0.00 0.00 0.00 72 1011.7
20260507232538 68 242 1.7 7.8 0.00 0.00 0.00 72 1011.8
20260507232039 68 227 1.7 7.8 0.00 0.00 0.00 73 1012.0